AB0TJ Weather Reports


Display with metric or nautical units.
time (UTC)temp
F
wind
direction
speed
MPH
gust
MPH
rain 1hr
in
rain 24hr
in
rain mn
in
humidity
%
barometer
mb
20260508114909 46 95 3.0 5.0 0.00 0.00 0.00 63 1015.3
20260508113959 46 44 1.0 0.0 0.00 0.00 0.00 63 1015.3
20260508113049 46 57 1.0 2.0 0.00 0.00 0.00 63 1015.3
20260508112112 46 38 2.0 3.0 0.00 0.00 0.00 63 1015.3
20260508111229 46 30 0.0 0.0 0.00 0.00 0.00 62 1015.4
20260508110404 46 21 0.0 0.0 0.00 0.00 0.00 62 1015.2
20260508105602 47 23 1.0 1.0 0.00 0.00 0.00 61 1015.2
20260508104759 47 347 0.0 1.0 0.00 0.00 0.00 60 1015.2
20260508103812 47 26 1.0 1.0 0.00 0.00 0.00 60 1015.0
20260508102852 48 344 0.0 1.0 0.00 0.00 0.00 59 1014.9
20260508102052 48 21 0.0 1.0 0.00 0.00 0.00 59 1015.1
20260508101252 48 1 0.0 1.0 0.00 0.00 0.00 58 1014.9
20260508100424 49 301 0.0 2.0 0.00 0.00 0.00 57 1015.1
20260508095544 49 288 0.0 2.0 0.00 0.00 0.00 57 1014.7
20260508094604 49 307 1.0 2.0 0.00 0.00 0.00 56 1014.8
20260508093714 49 47 0.0 1.0 0.00 0.00 0.00 56 1015.0
20260508092859 49 38 0.0 1.0 0.00 0.00 0.00 56 1014.6
20260508091914 49 322 0.0 1.0 0.00 0.00 0.00 55 1014.9
20260508091054 49 39 0.0 1.0 0.00 0.00 0.00 55 1014.8
20260508090208 49 36 0.0 0.0 0.00 0.00 0.00 55 1014.9
20260508085209 49 40 0.0 3.0 0.00 0.00 0.00 54 1015.0
20260508084332 50 44 2.0 3.0 0.00 0.00 0.00 55 1014.9
20260508083514 50 358 0.0 2.0 0.00 0.00 0.00 54 1015.2
20260508082634 50 9 0.0 2.0 0.00 0.00 0.00 54 1014.8
20260508081809 50 57 1.0 2.0 0.00 0.00 0.00 53 1015.0
20260508080959 51 44 0.0 0.0 0.00 0.00 0.00 52 1015.1
20260508080002 51 38 1.0 2.0 0.00 0.00 0.00 51 1014.9
20260508075129 51 49 0.0 1.0 0.00 0.00 0.00 51 1015.3
20260508074139 52 34 0.0 1.0 0.00 0.00 0.00 49 1015.0
20260508073253 53 71 0.0 0.0 0.00 0.00 0.00 48 1015.1
20260508072349 53 71 0.0 0.0 0.00 0.00 0.00 47 1015.0
20260508071409 54 71 0.0 0.0 0.00 0.00 0.00 46 1014.9
20260508070434 54 71 0.0 0.0 0.00 0.00 0.00 45 1015.0
20260508065609 55 71 0.0 0.0 0.00 0.00 0.00 44 1014.8
20260508064724 55 100 1.0 1.0 0.00 0.00 0.00 43 1015.0
20260508063849 56 65 0.0 1.0 0.00 0.00 0.00 42 1014.9
20260508062904 57 106 0.0 2.0 0.00 0.00 0.00 41 1014.7
20260508061952 57 111 1.0 2.0 0.00 0.00 0.00 40 1014.6
20260508061059 57 95 2.0 5.0 0.00 0.00 0.00 41 1014.6
20260508060152 57 39 1.0 2.0 0.00 0.00 0.00 42 1014.5
20260508055339 58 359 0.0 2.0 0.00 0.00 0.00 41 1014.5
20260508054454 58 195 0.0 0.0 0.00 0.00 0.00 39 1014.6
20260508053512 58 195 0.0 0.0 0.00 0.00 0.00 39 1014.8
20260508052704 58 195 0.0 1.0 0.00 0.00 0.00 39 1014.7
20260508051714 58 66 0.0 0.0 0.00 0.00 0.00 39 1014.5
20260508050852 58 66 0.0 0.0 0.00 0.00 0.00 40 1014.9
20260508045854 58 66 0.0 0.0 0.00 0.00 0.00 41 1014.6
20260508044939 59 66 0.0 0.0 0.00 0.00 0.00 40 1014.8
20260508043939 60 66 0.0 2.0 0.00 0.00 0.00 39 1014.6
20260508043034 60 96 0.0 2.0 0.00 0.00 0.00 38 1014.7
20260508042129 61 64 0.0 0.0 0.00 0.00 0.00 37 1014.7
20260508041219 61 64 0.0 0.0 0.00 0.00 0.00 36 1014.7
20260508040244 62 64 0.0 0.0 0.00 0.00 0.00 34 1014.7
20260508035404 63 64 0.0 0.0 0.00 0.00 0.00 34 1014.7
20260508034549 63 64 0.0 0.0 0.00 0.00 0.00 33 1014.5
20260508033729 64 64 0.0 0.0 0.00 0.00 0.00 31 1014.5
20260508032904 64 64 0.0 0.0 0.00 0.00 0.00 30 1014.3
20260508032014 65 61 0.0 1.0 0.00 0.00 0.00 29 1014.3
20260508031049 65 49 0.0 0.0 0.00 0.00 0.00 30 1014.5
20260508030109 66 49 0.0 0.0 0.00 0.00 0.00 29 1014.2
20260508025220 66 49 0.0 0.0 0.00 0.00 0.00 28 1014.1
20260508024258 67 56 0.0 1.0 0.00 0.00 0.00 27 1014.0
20260508023404 68 284 0.0 0.0 0.00 0.00 0.00 27 1014.1
20260508022502 69 284 0.0 0.0 0.00 0.00 0.00 26 1013.9
20260508021549 70 284 0.0 0.0 0.00 0.00 0.00 25 1013.7
20260508020739 71 284 0.0 0.0 0.00 0.00 0.00 23 1013.6
20260508015824 72 284 0.0 3.0 0.00 0.00 0.00 23 1013.7
20260508014832 73 331 0.0 0.0 0.00 0.00 0.00 21 1013.4
20260508013844 74 331 1.0 6.0 0.00 0.00 0.00 20 1013.5
20260508012944 76 353 1.0 9.0 0.00 0.00 0.00 19 1013.5
20260508012019 76 355 2.0 3.0 0.00 0.00 0.00 19 1013.6
20260508011204 76 343 2.0 7.0 0.00 0.00 0.00 19 1013.5
20260508010239 76 351 2.0 7.0 0.00 0.00 0.00 19 1013.9
20260508005249 75 309 3.0 7.0 0.00 0.00 0.00 19 1013.6
20260508004352 75 327 3.0 7.0 0.00 0.00 0.00 20 1013.6
20260508003449 76 298 3.0 7.0 0.00 0.00 0.00 20 1013.7
20260508002619 76 248 4.0 7.0 0.00 0.00 0.00 20 1014.1
20260508001659 75 316 4.0 8.0 0.00 0.00 0.00 20 1014.1
20260508000704 74 272 6.0 10.0 0.00 0.00 0.00 20 1014.1
20260507235709 75 308 3.0 7.0 0.00 0.00 0.00 20 1014.0
20260507234744 76 272 1.0 11.0 0.00 0.00 0.00 20 1013.8
20260507233932 77 296 7.0 10.0 0.00 0.00 0.00 19 1013.9
20260507233054 77 359 1.0 9.0 0.00 0.00 0.00 19 1014.0
20260507232145 76 286 3.0 11.0 0.00 0.00 0.00 19 1014.0
20260507231248 76 294 4.0 8.0 0.00 0.00 0.00 20 1014.3
20260507230329 75 322 3.0 11.0 0.00 0.00 0.00 20 1014.3
20260507225439 75 324 3.0 7.0 0.00 0.00 0.00 20 1014.5
20260507224619 75 35 1.0 9.0 0.00 0.00 0.00 20 1014.6
20260507223724 74 303 2.0 9.0 0.00 0.00 0.00 21 1014.9
20260507222754 73 319 5.0 11.0 0.00 0.00 0.00 21 1014.9
20260507221929 73 24 2.0 8.0 0.00 0.00 0.00 21 1015.0
20260507221122 73 334 3.0 10.0 0.00 0.00 0.00 21 1015.2
20260507220204 73 303 5.0 11.0 0.00 0.00 0.00 21 1015.4
20260507215344 73 308 1.0 9.0 0.00 0.00 0.00 22 1015.6
20260507214449 72 329 3.0 13.0 0.00 0.00 0.00 22 1015.6
20260507213519 72 323 5.0 10.0 0.00 0.00 0.00 22 1016.1
20260507212639 72 292 3.0 9.0 0.00 0.00 0.00 21 1016.1
20260507211649 71 260 1.0 9.0 0.00 0.00 0.00 23 1016.2
20260507210834 71 322 5.0 9.0 0.00 0.00 0.00 22 1016.7
20260507205947 70 340 2.0 10.0 0.00 0.00 0.00 21 1016.7
20260507205011 70 327 5.0 11.0 0.00 0.00 0.00 21 1017.0
20260507204059 70 315 4.0 11.0 0.00 0.00 0.00 21 1017.3
20260507203152 70 336 3.0 7.0 0.00 0.00 0.00 22 1017.0
20260507202319 69 276 3.0 6.0 0.00 0.00 0.00 21 1017.5
20260507201514 69 236 2.0 7.0 0.00 0.00 0.00 22 1017.8
20260507200524 68 351 4.0 15.0 0.00 0.00 0.00 22 1017.9
20260507195539 68 331 2.0 9.0 0.00 0.00 0.00 21 1018.1
20260507194544 67 45 2.0 11.0 0.00 0.00 0.00 21 1018.3
20260507193729 67 300 5.0 11.0 0.00 0.00 0.00 23 1018.4
20260507192809 66 6 2.0 9.0 0.00 0.00 0.00 22 1018.4
20260507191809 66 111 3.0 9.0 0.00 0.00 0.00 23 1018.4
20260507190829 66 40 2.0 5.0 0.00 0.00 0.00 22 1018.9
20260507185915 66 298 3.0 9.0 0.00 0.00 0.00 22 1019.2
20260507185039 65 287 4.0 9.0 0.00 0.00 0.00 22 1019.4
20260507184141 65 16 2.0 8.0 0.00 0.00 0.00 23 1019.7
20260507183152 66 335 4.0 9.0 0.00 0.00 0.00 22 1019.6
20260507182232 66 38 2.0 9.0 0.00 0.00 0.00 22 1019.7
20260507181350 66 121 2.0 6.0 0.00 0.00 0.00 23 1020.2
20260507180552 67 139 1.0 6.0 0.00 0.00 0.00 22 1020.3
20260507175752 67 287 2.0 6.0 0.00 0.00 0.00 21 1020.1
20260507174919 66 121 1.0 6.0 0.00 0.00 0.00 22 1020.5
20260507174039 65 157 2.0 6.0 0.00 0.00 0.00 23 1020.6
20260507173109 64 168 2.0 8.0 0.00 0.00 0.00 24 1020.5
20260507172214 63 175 5.0 9.0 0.00 0.00 0.00 23 1020.9
20260507171328 64 139 4.0 8.0 0.00 0.00 0.00 23 1020.8
20260507170452 64 112 3.0 10.0 0.00 0.00 0.00 22 1020.7
20260507165622 64 28 1.0 6.0 0.00 0.00 0.00 23 1021.0
20260507164652 63 97 3.0 6.0 0.00 0.00 0.00 25 1020.9
20260507163719 62 105 3.0 7.0 0.00 0.00 0.00 27 1021.4
20260507162726 62 159 1.0 6.0 0.00 0.00 0.00 27 1021.2
20260507161759 61 208 1.0 8.0 0.00 0.00 0.00 27 1021.6
20260507160904 59 112 2.0 8.0 0.00 0.00 0.00 29 1021.9
20260507160019 58 119 3.0 9.0 0.00 0.00 0.00 29 1021.8
20260507155129 56 99 4.0 13.0 0.00 0.00 0.00 30 1022.0
20260507154209 54 166 4.0 13.0 0.00 0.00 0.00 32 1022.0
20260507153329 53 131 5.0 13.0 0.00 0.00 0.00 34 1021.9
20260507152339 53 145 5.0 16.0 0.00 0.00 0.00 35 1022.4
20260507151519 52 121 5.0 10.0 0.00 0.00 0.00 35 1022.4
20260507150546 52 133 5.0 10.0 0.00 0.00 0.00 36 1022.9
20260507145602 51 139 5.0 13.0 0.00 0.00 0.00 37 1022.9
20260507144658 50 113 4.0 9.0 0.00 0.00 0.00 38 1023.0
20260507143844 49 123 4.0 9.0 0.00 0.00 0.00 39 1023.2
20260507143039 48 108 2.0 10.0 0.00 0.00 0.00 39 1023.1
20260507142052 48 122 4.0 13.0 0.00 0.00 0.00 38 1023.1
20260507141129 47 157 3.0 8.0 0.00 0.00 0.00 39 1023.5
20260507140159 47 150 3.0 11.0 0.00 0.00 0.00 41 1023.1
20260507135232 46 120 6.0 10.0 0.00 0.00 0.00 42 1023.0
20260507134349 45 117 5.0 10.0 0.00 0.00 0.00 44 1023.3
20260507133458 44 160 3.0 9.0 0.00 0.00 0.00 45 1022.8
20260507132519 44 123 4.0 11.0 0.00 0.00 0.00 44 1022.9
20260507131706 44 115 3.0 11.0 0.00 0.00 0.00 43 1022.8
20260507130749 43 116 4.0 11.0 0.00 0.00 0.00 43 1022.7
20260507125837 42 128 3.0 7.0 0.00 0.00 0.00 45 1023.0
20260507124919 41 119 4.0 9.0 0.00 0.00 0.00 46 1022.6
20260507123924 41 138 2.0 8.0 0.00 0.02 0.00 47 1022.6
20260507123049 40 134 2.0 9.0 0.00 0.02 0.00 47 1022.7
20260507122059 40 134 3.0 7.0 0.00 0.03 0.00 48 1022.5
20260507121234 41 138 3.0 6.0 0.00 0.03 0.00 48 1022.7
20260507120348 41 123 2.0 8.0 0.00 0.03 0.00 48 1022.6
20260507115429 42 138 2.0 5.0 0.00 0.04 0.00 47 1022.3